Find Starlink 4053

NORAD ID: 53536 Int'l Des: 2022-101 Owner: SPXS Country: US Constellation: starlink operational
LEOCIRCULAR

Live Position

Loading 3D Globe...

About Starlink 4053

Description loading...

Upcoming Passes

Passes for default location (London). Set your location on the main map for personalized predictions.

Altitude History

Loading altitude history...

Two-Line Element Set

1 53536U 22101K 26124.14611558 .00000702 00000-0 62180-4 0 9994
2 53536 53.2167 175.0891 0001069 73.9755 286.1355 15.08836647204678
Epoch: May 4, 2026 • Age: 7 hours

Current Status

Altitude 544.8 km
Velocity 7.60 km/s
Sub-Earth Point 49.60°N, 140.31°W
Launch Date Aug 19, 2022
Age 3.7 years
Type internet

Technical Details

Classification Payload
Mass 300.00 kg
Dry Mass 290.00 kg
Total Mass 300.00 kg
Length 0.20 m
Diameter 2.80 m
Span 9.00 m
Shape Box + pan
Manufacturer SPXS
Bus Type Starlink
Phase Status In Orbit
Owner/State SPXS/US

Most Searched